TimeMDT,TemperatureF,Dew PointF,Humidity,Sea Level PressureIn,VisibilityMPH,Wind Direction,Wind SpeedMPH,Gust SpeedMPH,PrecipitationIn,Events,Conditions,WindDirDegrees,DateUTC
12:56 AM,33.1,28.0,82,30.25,-9999.0,West,15.0,-,N/A,,Unknown,280,2014-03-12 06:56:00
1:56 AM,33.1,28.9,85,30.24,-9999.0,West,13.8,-,N/A,,Unknown,280,2014-03-12 07:56:00
2:56 AM,30.9,27.0,85,30.23,-9999.0,WNW,16.1,-,N/A,,Unknown,290,2014-03-12 08:56:00
3:56 AM,30.0,26.1,85,30.22,-9999.0,WNW,11.5,-,N/A,,Unknown,290,2014-03-12 09:56:00
4:56 AM,28.9,25.0,85,30.20,-9999.0,West,10.4,-,N/A,,Unknown,280,2014-03-12 10:56:00
5:56 AM,28.9,25.0,85,30.22,-9999.0,West,10.4,-,N/A,,Unknown,280,2014-03-12 11:56:00
6:56 AM,30.0,24.1,79,30.21,-9999.0,West,12.7,-,N/A,,Unknown,270,2014-03-12 12:56:00
7:56 AM,30.9,24.1,76,30.20,-9999.0,West,13.8,-,N/A,,Unknown,280,2014-03-12 13:56:00
8:56 AM,33.1,25.0,72,30.20,-9999.0,West,12.7,-,N/A,,Unknown,280,2014-03-12 14:56:00
9:56 AM,36.0,27.0,70,30.19,-9999.0,West,17.3,-,N/A,,Unknown,280,2014-03-12 15:56:00
10:56 AM,37.9,28.9,70,30.18,-9999.0,West,15.0,-,N/A,,Unknown,280,2014-03-12 16:56:00
11:56 AM,39.9,30.9,70,30.17,-9999.0,West,15.0,-,N/A,,Unknown,280,2014-03-12 17:56:00
12:56 PM,44.1,33.1,65,30.14,-9999.0,West,15.0,-,N/A,,Unknown,270,2014-03-12 18:56:00
1:56 PM,50.0,32.0,50,30.10,-9999.0,NW,18.4,24.2,N/A,,Unknown,310,2014-03-12 19:56:00
2:56 PM,51.1,30.9,46,30.10,-9999.0,NW,21.9,-,N/A,,Unknown,310,2014-03-12 20:56:00
3:56 PM,52.0,32.0,47,30.09,-9999.0,WNW,21.9,-,N/A,,Unknown,290,2014-03-12 21:56:00
4:56 PM,51.1,30.9,46,30.08,-9999.0,WNW,20.7,27.6,N/A,,Unknown,290,2014-03-12 22:56:00
5:56 PM,48.9,32.0,52,30.08,-9999.0,West,17.3,-,N/A,,Unknown,280,2014-03-12 23:56:00
6:56 PM,43.0,35.1,74,30.08,-9999.0,West,12.7,-,N/A,,Unknown,260,2014-03-13 00:56:00
7:56 PM,39.9,33.1,77,30.08,-9999.0,West,12.7,-,N/A,,Unknown,260,2014-03-13 01:56:00
8:56 PM,39.9,32.0,73,30.07,-9999.0,West,13.8,-,N/A,,Unknown,270,2014-03-13 02:56:00
9:56 PM,39.0,30.0,70,30.06,-9999.0,West,13.8,-,N/A,,Unknown,270,2014-03-13 03:56:00
10:56 PM,39.0,28.9,67,30.04,-9999.0,West,13.8,-,N/A,,Unknown,270,2014-03-13 04:56:00
11:56 PM,37.9,28.0,68,30.04,-9999.0,West,13.8,-,N/A,,Unknown,280,2014-03-13 05:56:00